Regional Weather Roundup
Issued by NWS

Home | Current Version | Previous Version | Text Only | Print | Product List | Glossary Off
Versions: 1 2 3 4 5 6 7 8 9 10 11 12 13 14 15 16 17 18 19 20 21 22 23 24 25 26 27 28 29 30 31 32 33 34 35 36 37 38 39 40 41 42 43 44 45 46 47 48 49 50

000
ASUS45 KCYS 281110
RWRWY

WYOMING REGIONAL WEATHER ROUNDUP
NATIONAL WEATHER SERVICE CHEYENNE WY
500 AM MDT MON JUL 28 2014

NOTE:  "FAIR" INDICATES FEW OR NO CLOUDS BELOW 12,000 FEET
WITH NO SIGNIFICANT WEATHER AND/OR OBSTRUCTIONS TO VISIBILITY.

WYZ001-281200-
YELLOWSTONE NATIONAL PARK

CITY           SKY/WX    TMP DP  RH WIND       PRES   REMARKS
LK YELLOWSTONE   N/A     39  34  82 NW3       30.51R
W YELLOWSTONE  NOT AVBL

$$
WYZ002>013-054>058-071-098>099-281200-
NORTHERN WYOMING

CITY           SKY/WX    TMP DP  RH WIND       PRES   REMARKS
JACKSON        CLEAR     46  36  66 NE5       30.40S
CODY           NOT AVBL
GREYBULL       CLEAR     61  39  44 NW7       30.25R
WORLAND        CLEAR     59  38  45 S5        30.26R
SHERIDAN       CLEAR     51  44  77 CALM      30.29R
BUFFALO        CLEAR     59  43  55 SE8       30.35S
GILLETTE       CLEAR     60  48  64 S8        30.35S
HULETT         FAIR      54  46  76 MISG      30.35
NEWCASTLE      FAIR      54  43  66 CALM      30.37

$$
WYZ014>020-022>026-101>103-281200-
CENTRAL WYOMING

CITY           SKY/WX    TMP DP  RH WIND       PRES   REMARKS
BIG PINEY      PTCLDY    49  28  44 E6        30.45R
PINEDALE       MOSUNNY   43  36  75 W7        30.46R
DUBOIS         FAIR      46  28  49 NW9       30.48R
LANDER         CLEAR     63  34  33 NW3       30.33S
RIVERTON       CLEAR     61  38  42 NE5       30.34S
CASPER         CLEAR     51  39  63 NW5       30.36S
DOUGLAS        CLEAR     58  46  64 SE3       30.35R

$$
WYZ021-027>030-104>119-281200-
SOUTHERN WYOMING

CITY           SKY/WX    TMP DP  RH WIND       PRES   REMARKS
EVANSTON       MOCLDY    64  24  21 E3        30.39S
KEMMERER       MOSUNNY   61  34  36 N14       30.42S
FORT BRIDGER   FAIR      57  23  26 NW6       30.42R
ROCK SPRINGS   PTCLDY    61  45  55 E7        30.39S
DIXON          FAIR      56  45  65 SE5       30.40S
RAWLINS        CLEAR     55  49  80 W3        30.42S
SARATOGA       FAIR      52  46  82 CALM      30.44S
LARAMIE        CLEAR     52  51  97 S3        30.45S FOG
CHEYENNE       CLEAR     54  51  90 W6        30.40S
TORRINGTON     CLEAR     59  48  67 E7        30.31S
PINE BLUFFS    FAIR      57  48  72 CALM      30.36S

$$



USA.gov is the U.S. government's official web portal to all federal, state and local government web resources and services.